星链-34098 (STARLINK-34098)

导读

STARLINK-34098是美国于2025年5月21日发射的星链低轨卫星,隶属于美国太空探索技术公司SpaceX的星链卫星互联网项目。星链项目旨在构建全球覆盖的卫星互联网星座,该卫星入轨后将参与扩容全球卫星互联网服务,为偏远地区等场景提供宽带网络接入支持。

基本信息
目录编号:
64080
目录名称:
STARLINK-34098
国际标识:
2025-107S
轨道中心:
EARTH
卫星名称:
星链-34098
卫星全名:
星链-34098 (STARLINK-34098)
卫星状态:
在轨 (已飞行471 天)
发射日期:
2025-05-21 UTC
国别 :
美国 (US)
星等 :
--
轨道信息
数据来源 国际轨道数据 AOE轨道数据
星历时间 2026-09-04T11:15:12+0800
5小时前
查看轨道信息
2026-09-01T23:00:00+0800
2天前
查看轨道信息
半长轴 6861.168km 6861.259km
偏心率 0.0001478 0.0001776
轨道倾角 43.003° 43.003°
近地点辐角 271.806° 248.446°
升交点赤经 273.588° 287.766°
平近点角 88.262° 329.165°
近地点 482.016km 481.903km
远地点 484.046km 484.341km
周期 94.266分钟 94.268分钟
每日圈数 15.275863 15.275559
详细信息
固有亮度:
5
最大亮度:
2.5
卫星平台:
Starlink V1.0
覆盖范围:
全球
运营商:
太空探索技术公司
运营商所在国:
美国
制造商(研发单位):
太空探索技术公司
制造商所在国:
美国
使用方式:
暂无
卫星简介
Starlink 计划是 SpaceX 推出的全球卫星互联网项目,通过发射低轨道卫星,为全球尤其是偏远地区提供高速、低延迟的互联网服务。自 2019 年起,Starlink 已部署数千颗卫星,旨在缩小全球数字鸿沟,推动互联网普及。该项目还为军事、航空等行业提供通信支持,带来广泛经济效益。
2D轨道图
3D轨道图
轨道高度分析图
轨道倾角分析图
轨道综合分析图
查看轨道综合分析图
交会数据列表
事件ID 空间交会对象 最接近时刻(TCA) 交会距离 交会风险概率(CRP) 交会风险指数(CRI) 操作
CDM_260903-105305-320706-408021
2026-09-03T
10:53:53+0000
2.461 km
极远距离
1.203336E-6 低风险 0.37